CES0505 ZJHK-ZGCJ

Flight info

Callsign CES0505
Flight time 1h 22m
Altitude 24600
Route AGTEL W71 LH X28 ENKUS R343 MAMSI G586 P168
Aircraft B738/M-SDE2E3FGHIRWXY/LB1

Departure

Time 2026-05-05 11:14
Airport Haikou Meilan International Airport (ZJHK)

Arrival

Time 2026-05-05 12:36
Airport Huaihua Zhijiang Airport (ZGCJ)
Time Latitude Longitude Altitude Speed Heading
2026-05-05 10:58 19.94684 110.45445 59 ft 0 kts 130°
2026-05-05 11:01 19.94685 110.45444 59 ft 1 kts 130°
2026-05-05 11:01 19.94699 110.45423 52 ft 4 kts 120°
2026-05-05 11:02 19.94707 110.45407 54 ft 4 kts 111°
2026-05-05 11:02 19.94715 110.45379 54 ft 4 kts 97°
2026-05-05 11:02 19.94716 110.45351 54 ft 4 kts 83°
2026-05-05 11:02 19.94707 110.45314 50 ft 4 kts 69°
2026-05-05 11:03 19.94700 110.45296 57 ft 4 kts 68°
2026-05-05 11:03 19.94693 110.45272 58 ft 2 kts 89°
2026-05-05 11:03 19.94693 110.45271 58 ft 0 kts 90°
2026-05-05 11:08 19.94693 110.45276 59 ft 2 kts 90°
2026-05-05 11:09 19.94693 110.45300 57 ft 5 kts 90°
2026-05-05 11:09 19.94694 110.45351 59 ft 9 kts 80°
2026-05-05 11:09 19.94742 110.45390 54 ft 12 kts 342°
2026-05-05 11:09 19.94814 110.45317 52 ft 17 kts 311°
2026-05-05 11:10 19.94899 110.45242 54 ft 16 kts 347°
2026-05-05 11:10 19.95017 110.45242 52 ft 17 kts
2026-05-05 11:10 19.95136 110.45242 52 ft 17 kts 360°
2026-05-05 11:10 19.95202 110.45202 51 ft 12 kts 278°
2026-05-05 11:11 19.95202 110.45115 52 ft 12 kts 270°
2026-05-05 11:11 19.95202 110.45030 51 ft 11 kts 269°
2026-05-05 11:11 19.95201 110.44948 51 ft 11 kts 270°
2026-05-05 11:11 19.95201 110.44868 51 ft 11 kts 270°
2026-05-05 11:12 19.95230 110.44808 50 ft 11 kts 351°
2026-05-05 11:12 19.95302 110.44823 49 ft 11 kts 14°
2026-05-05 11:12 19.95368 110.44853 49 ft 10 kts 44°
2026-05-05 11:12 19.95373 110.44910 49 ft 7 kts 102°
2026-05-05 11:13 19.95372 110.44952 50 ft 6 kts 90°
2026-05-05 11:13 19.95372 110.45150 52 ft 60 kts 90°
2026-05-05 11:13 19.95372 110.45853 56 ft 127 kts 90°
2026-05-05 11:13 19.95367 110.46962 244 ft 164 kts 90°
2026-05-05 11:14 19.95381 110.48207 926 ft 172 kts 89°
2026-05-05 11:14 19.95425 110.49445 1809 ft 161 kts 79°
2026-05-05 11:14 19.95937 110.50490 2206 ft 168 kts 42°
2026-05-05 11:14 19.97060 110.50903 2441 ft 184 kts 356°
2026-05-05 11:15 19.98216 110.50320 2793 ft 190 kts 317°
2026-05-05 11:15 19.99174 110.49331 3366 ft 193 kts 321°
2026-05-05 11:15 20.00292 110.48499 4080 ft 201 kts 331°
2026-05-05 11:15 20.01533 110.47840 4907 ft 199 kts 334°
2026-05-05 11:16 20.02895 110.47277 5216 ft 222 kts 339°
2026-05-05 11:16 20.04428 110.46701 5418 ft 244 kts 339°
2026-05-05 11:16 20.06061 110.46070 5831 ft 253 kts 338°
2026-05-05 11:16 20.07698 110.45414 6397 ft 256 kts 337°
2026-05-05 11:17 20.09365 110.44726 6977 ft 258 kts 336°
2026-05-05 11:17 20.11041 110.44020 7622 ft 260 kts 336°
2026-05-05 11:17 20.12731 110.43298 8381 ft 262 kts 336°
2026-05-05 11:17 20.14422 110.42569 9192 ft 263 kts 336°
2026-05-05 11:18 20.16128 110.41829 9947 ft 266 kts 335°
2026-05-05 11:18 20.17856 110.41077 10634 ft 269 kts 335°
2026-05-05 11:18 20.19601 110.40315 11330 ft 272 kts 335°
2026-05-05 11:18 20.21364 110.39545 12018 ft 275 kts 335°
2026-05-05 11:19 20.23143 110.38766 12704 ft 279 kts 335°
2026-05-05 11:19 20.24947 110.37977 13401 ft 281 kts 335°
2026-05-05 11:19 20.26811 110.37238 13838 ft 296 kts 339°
2026-05-05 11:19 20.28853 110.36531 13983 ft 319 kts 340°
2026-05-05 11:20 20.31040 110.35799 14131 ft 339 kts 340°
2026-05-05 11:20 20.33356 110.35024 14267 ft 359 kts 340°
2026-05-05 11:20 20.35779 110.34206 14541 ft 371 kts 340°
2026-05-05 11:20 20.38255 110.33366 15034 ft 375 kts 340°
2026-05-05 11:21 20.40715 110.32526 15612 ft 376 kts 339°
2026-05-05 11:21 20.43245 110.31658 16180 ft 379 kts 339°
2026-05-05 11:21 20.45762 110.30792 16702 ft 382 kts 339°
2026-05-05 11:21 20.48267 110.29930 17222 ft 384 kts 339°
2026-05-05 11:22 20.50897 110.29332 17694 ft 394 kts 355°
2026-05-05 11:22 20.53692 110.29440 18215 ft 398 kts
2026-05-05 11:22 20.56473 110.29648 18622 ft 401 kts
2026-05-05 11:22 20.59226 110.29866 19044 ft 404 kts
2026-05-05 11:23 20.62037 110.30083 19473 ft 406 kts
2026-05-05 11:23 20.64863 110.30289 19900 ft 408 kts
2026-05-05 11:23 20.67709 110.30486 20317 ft 410 kts
2026-05-05 11:23 20.70567 110.30678 20743 ft 412 kts 360°
2026-05-05 11:24 20.73438 110.30867 21146 ft 415 kts 360°
2026-05-05 11:24 20.76326 110.31056 21563 ft 416 kts 360°
2026-05-05 11:24 20.79217 110.31246 22098 ft 415 kts 360°
2026-05-05 11:24 20.82085 110.31435 22709 ft 412 kts 360°
2026-05-05 11:25 20.84937 110.31623 23319 ft 409 kts 360°
2026-05-05 11:25 20.87773 110.31809 23813 ft 408 kts 359°
2026-05-05 11:25 20.90609 110.31995 24260 ft 407 kts 359°
2026-05-05 11:25 20.93440 110.32181 24496 ft 406 kts 359°
2026-05-05 11:26 20.96240 110.32365 24522 ft 403 kts 359°
2026-05-05 11:26 20.99008 110.32547 24524 ft 406 kts 359°
2026-05-05 11:26 21.01869 110.32716 24530 ft 406 kts 359°
2026-05-05 11:26 21.04690 110.32864 24533 ft 405 kts 358°
2026-05-05 11:27 21.07465 110.33008 24530 ft 405 kts 359°
2026-05-05 11:27 21.10285 110.33159 24527 ft 405 kts 359°
2026-05-05 11:27 21.13095 110.33290 24527 ft 403 kts 356°
2026-05-05 11:27 21.15875 110.33089 24531 ft 399 kts 349°
2026-05-05 11:28 21.18624 110.32708 24528 ft 398 kts 348°
2026-05-05 11:28 21.21364 110.32296 24528 ft 398 kts 348°
2026-05-05 11:28 21.24106 110.31880 24526 ft 398 kts 348°
2026-05-05 11:28 21.26847 110.31468 24527 ft 398 kts 348°
2026-05-05 11:29 21.29589 110.31063 24521 ft 398 kts 348°
2026-05-05 11:29 21.32327 110.30665 24524 ft 398 kts 348°
2026-05-05 11:29 21.35074 110.30269 24520 ft 398 kts 348°
2026-05-05 11:29 21.37822 110.29876 24526 ft 398 kts 348°
2026-05-05 11:30 21.40568 110.29484 24528 ft 398 kts 348°
2026-05-05 11:30 21.43315 110.29093 24527 ft 398 kts 348°
2026-05-05 11:30 21.46065 110.28701 24523 ft 398 kts 348°
2026-05-05 11:30 21.48818 110.28308 24528 ft 399 kts 348°
2026-05-05 11:31 21.51564 110.27917 24519 ft 399 kts 348°
2026-05-05 11:31 21.54324 110.27523 24519 ft 399 kts 348°
2026-05-05 11:31 21.57073 110.27130 24523 ft 398 kts 348°
2026-05-05 11:31 21.59819 110.26738 24521 ft 398 kts 348°
2026-05-05 11:32 21.62566 110.26346 24517 ft 398 kts 348°
2026-05-05 11:32 21.65311 110.25953 24526 ft 398 kts 348°
2026-05-05 11:32 21.68020 110.25566 24519 ft 398 kts 348°
2026-05-05 11:32 21.70763 110.25174 24517 ft 398 kts 348°
2026-05-05 11:33 21.73506 110.24781 24517 ft 397 kts 348°
2026-05-05 11:33 21.76245 110.24389 24519 ft 397 kts 348°
2026-05-05 11:33 21.78975 110.23998 24519 ft 397 kts 348°
2026-05-05 11:33 21.81717 110.23606 24518 ft 396 kts 348°
2026-05-05 11:34 21.84449 110.23214 24520 ft 396 kts 348°
2026-05-05 11:34 21.87185 110.22821 24518 ft 396 kts 348°
2026-05-05 11:34 21.89916 110.22429 24520 ft 396 kts 348°
2026-05-05 11:34 21.92649 110.22037 24516 ft 396 kts 348°
2026-05-05 11:35 21.95384 110.21645 24518 ft 396 kts 348°
2026-05-05 11:35 21.98115 110.21252 24516 ft 396 kts 348°
2026-05-05 11:35 22.00842 110.20861 24516 ft 396 kts 348°
2026-05-05 11:35 22.03573 110.20468 24517 ft 396 kts 348°
2026-05-05 11:36 22.06303 110.20076 24520 ft 396 kts 348°
2026-05-05 11:36 22.09033 110.19683 24516 ft 396 kts 348°
2026-05-05 11:36 22.11763 110.19290 24519 ft 396 kts 348°
2026-05-05 11:36 22.14493 110.18897 24519 ft 396 kts 348°
2026-05-05 11:37 22.17224 110.18504 24518 ft 396 kts 348°
2026-05-05 11:37 22.19955 110.18110 24516 ft 396 kts 348°
2026-05-05 11:37 22.22684 110.17717 24519 ft 396 kts 348°
2026-05-05 11:37 22.25417 110.17323 24520 ft 396 kts 348°
2026-05-05 11:38 22.28144 110.16930 24519 ft 396 kts 348°
2026-05-05 11:38 22.30873 110.16536 24524 ft 395 kts 348°
2026-05-05 11:38 22.33564 110.16148 24522 ft 396 kts 348°
2026-05-05 11:38 22.36292 110.15754 24519 ft 395 kts 348°
2026-05-05 11:39 22.39015 110.15360 24525 ft 395 kts 348°
2026-05-05 11:39 22.41744 110.14966 24527 ft 396 kts 348°
2026-05-05 11:39 22.44476 110.14571 24523 ft 396 kts 348°
2026-05-05 11:39 22.47209 110.14175 24525 ft 396 kts 348°
2026-05-05 11:40 22.49942 110.13780 24524 ft 396 kts 348°
2026-05-05 11:40 22.52679 110.13387 24525 ft 396 kts 348°
2026-05-05 11:40 22.55414 110.12995 24522 ft 397 kts 348°
2026-05-05 11:40 22.58147 110.12604 24521 ft 396 kts 348°
2026-05-05 11:41 22.60885 110.12211 24522 ft 396 kts 348°
2026-05-05 11:41 22.63613 110.11820 24523 ft 396 kts 348°
2026-05-05 11:41 22.66345 110.11427 24524 ft 396 kts 348°
2026-05-05 11:41 22.69071 110.11036 24518 ft 396 kts 348°
2026-05-05 11:42 22.71804 110.10642 24517 ft 395 kts 348°
2026-05-05 11:42 22.74527 110.10251 24522 ft 394 kts 348°
2026-05-05 11:42 22.77249 110.09859 24521 ft 395 kts 348°
2026-05-05 11:42 22.79968 110.09467 24523 ft 395 kts 348°
2026-05-05 11:43 22.82694 110.09074 24519 ft 395 kts 348°
2026-05-05 11:43 22.85419 110.08682 24521 ft 395 kts 348°
2026-05-05 11:43 22.88142 110.08289 24525 ft 395 kts 348°
2026-05-05 11:43 22.90862 110.07897 24522 ft 395 kts 348°
2026-05-05 11:44 22.93554 110.07508 24515 ft 395 kts 348°
2026-05-05 11:44 22.96275 110.07116 24509 ft 395 kts 348°
2026-05-05 11:44 22.98994 110.06723 24518 ft 394 kts 348°
2026-05-05 11:44 23.01714 110.06330 24523 ft 394 kts 348°
2026-05-05 11:45 23.04436 110.05937 24515 ft 394 kts 348°
2026-05-05 11:45 23.07154 110.05544 24522 ft 394 kts 348°
2026-05-05 11:45 23.09871 110.05151 24516 ft 394 kts 348°
2026-05-05 11:45 23.12592 110.04757 24517 ft 394 kts 348°
2026-05-05 11:46 23.15302 110.04365 24514 ft 394 kts 348°
2026-05-05 11:46 23.18015 110.03972 24515 ft 393 kts 348°
2026-05-05 11:46 23.20730 110.03578 24514 ft 393 kts 348°
2026-05-05 11:46 23.23444 110.03185 24517 ft 393 kts 348°
2026-05-05 11:47 23.26152 110.02792 24516 ft 393 kts 348°
2026-05-05 11:47 23.28864 110.02399 24516 ft 393 kts 348°
2026-05-05 11:47 23.31572 110.02006 24517 ft 393 kts 348°
2026-05-05 11:47 23.34282 110.01612 24518 ft 392 kts 348°
2026-05-05 11:48 23.39684 110.00828 24515 ft 391 kts 348°
2026-05-05 11:48 23.42378 110.00437 24508 ft 391 kts 348°
2026-05-05 11:48 23.45075 110.00044 24515 ft 391 kts 348°
2026-05-05 11:49 23.47770 109.99652 24524 ft 392 kts 348°
2026-05-05 11:49 23.50470 109.99259 24531 ft 391 kts 348°
2026-05-05 11:49 23.53170 109.98866 24519 ft 392 kts 348°
2026-05-05 11:49 23.55836 109.98477 24514 ft 391 kts 348°
2026-05-05 11:50 23.58533 109.98084 24525 ft 391 kts 348°
2026-05-05 11:50 23.61231 109.97691 24523 ft 391 kts 348°
2026-05-05 11:50 23.63929 109.97297 24526 ft 391 kts 348°
2026-05-05 11:50 23.66628 109.96904 24530 ft 392 kts 348°
2026-05-05 11:51 23.69330 109.96509 24528 ft 392 kts 348°
2026-05-05 11:51 23.72028 109.96116 24513 ft 391 kts 348°
2026-05-05 11:51 23.74726 109.95723 24528 ft 390 kts 348°
2026-05-05 11:51 23.77418 109.95328 24522 ft 391 kts 348°
2026-05-05 11:52 23.80119 109.94933 24526 ft 391 kts 348°
2026-05-05 11:52 23.81904 109.94671 24511 ft 391 kts 348°
2026-05-05 11:52 23.85507 109.94146 24509 ft 389 kts 348°
2026-05-05 11:52 23.87282 109.93887 24535 ft 389 kts 348°
2026-05-05 11:53 23.89973 109.93493 24526 ft 390 kts 348°
2026-05-05 11:53 23.92670 109.93097 24524 ft 391 kts 348°
2026-05-05 11:53 23.96281 109.92566 24517 ft 391 kts 348°
2026-05-05 11:53 23.98063 109.92305 24524 ft 391 kts 348°
2026-05-05 11:54 24.00764 109.91909 24519 ft 391 kts 348°
2026-05-05 11:54 24.03458 109.91514 24523 ft 391 kts 348°
2026-05-05 11:54 24.06158 109.91117 24517 ft 391 kts 348°
2026-05-05 11:54 24.08846 109.90722 24518 ft 391 kts 348°
2026-05-05 11:55 24.11542 109.90326 24519 ft 391 kts 348°
2026-05-05 11:55 24.14235 109.89930 24517 ft 391 kts 348°
2026-05-05 11:55 24.16936 109.89533 24517 ft 391 kts 348°
2026-05-05 11:55 24.19633 109.89136 24513 ft 391 kts 348°
2026-05-05 11:56 24.22330 109.88739 24512 ft 391 kts 348°
2026-05-05 11:56 24.24986 109.88348 24510 ft 391 kts 348°
2026-05-05 11:56 24.27684 109.87951 24508 ft 391 kts 348°
2026-05-05 11:56 24.30379 109.87554 24507 ft 391 kts 348°
2026-05-05 11:57 24.33079 109.87155 24502 ft 391 kts 348°
2026-05-05 11:57 24.35778 109.86757 24506 ft 391 kts 348°
2026-05-05 11:57 24.38473 109.86360 24503 ft 391 kts 348°
2026-05-05 11:57 24.41170 109.85962 24504 ft 391 kts 348°
2026-05-05 11:58 24.43865 109.85564 24506 ft 391 kts 348°
2026-05-05 11:58 24.46568 109.85164 24505 ft 391 kts 348°
2026-05-05 11:58 24.49266 109.84765 24503 ft 391 kts 348°
2026-05-05 11:58 24.51962 109.84366 24505 ft 391 kts 348°
2026-05-05 11:59 24.54660 109.83967 24500 ft 392 kts 348°
2026-05-05 11:59 24.57365 109.83567 24500 ft 392 kts 348°
2026-05-05 11:59 24.60062 109.83167 24501 ft 392 kts 348°
2026-05-05 11:59 24.62763 109.82767 24497 ft 392 kts 348°
2026-05-05 12:00 24.65485 109.82535 24498 ft 396 kts 359°
2026-05-05 12:00 24.68221 109.83028 24513 ft 403 kts 11°
2026-05-05 12:00 24.70839 109.84193 24496 ft 411 kts 26°
2026-05-05 12:00 24.73254 109.85896 24515 ft 413 kts 30°
2026-05-05 12:01 24.75628 109.87686 24512 ft 414 kts 30°
2026-05-05 12:01 24.77998 109.89500 24502 ft 415 kts 30°
2026-05-05 12:01 24.80367 109.91306 24496 ft 415 kts 30°
2026-05-05 12:01 24.82748 109.93105 24502 ft 415 kts 30°
2026-05-05 12:02 24.85137 109.94897 24496 ft 415 kts 30°
2026-05-05 12:02 24.87520 109.96672 24509 ft 414 kts 30°
2026-05-05 12:02 24.89905 109.98447 24496 ft 414 kts 30°
2026-05-05 12:02 24.92285 110.00215 24498 ft 413 kts 30°
2026-05-05 12:03 24.94664 110.01982 24496 ft 413 kts 30°
2026-05-05 12:03 24.97051 110.03756 24489 ft 412 kts 30°
2026-05-05 12:03 24.99431 110.05526 24487 ft 412 kts 30°
2026-05-05 12:03 25.01798 110.07288 24494 ft 411 kts 30°
2026-05-05 12:04 25.04171 110.09055 24490 ft 411 kts 30°
2026-05-05 12:04 25.06540 110.10821 24488 ft 411 kts 30°
2026-05-05 12:04 25.08909 110.12588 24488 ft 411 kts 30°
2026-05-05 12:04 25.11280 110.14356 24485 ft 411 kts 30°
2026-05-05 12:05 25.13648 110.16123 24488 ft 411 kts 30°
2026-05-05 12:05 25.16081 110.17753 24468 ft 406 kts 18°
2026-05-05 12:05 25.18739 110.18479 24494 ft 396 kts 360°
2026-05-05 12:05 25.21448 110.18240 24489 ft 389 kts 343°
2026-05-05 12:06 25.23969 110.17208 24488 ft 385 kts 329°
2026-05-05 12:06 25.26122 110.15482 24496 ft 382 kts 317°
2026-05-05 12:06 25.28077 110.13489 24485 ft 383 kts 315°
2026-05-05 12:06 25.29991 110.11444 24479 ft 384 kts 314°
2026-05-05 12:07 25.31904 110.09380 24485 ft 384 kts 314°
2026-05-05 12:07 25.33818 110.07323 24487 ft 385 kts 315°
2026-05-05 12:07 25.35747 110.05264 24487 ft 385 kts 315°
2026-05-05 12:07 25.37682 110.03213 24488 ft 386 kts 315°
2026-05-05 12:08 25.39627 110.01160 24491 ft 386 kts 315°
2026-05-05 12:08 25.41568 109.99116 24492 ft 385 kts 315°
2026-05-05 12:08 25.43510 109.97073 24499 ft 385 kts 315°
2026-05-05 12:08 25.45449 109.95033 24496 ft 385 kts 315°
2026-05-05 12:09 25.47392 109.92988 24497 ft 385 kts 315°
2026-05-05 12:09 25.49330 109.90949 24503 ft 384 kts 315°
2026-05-05 12:09 25.51265 109.88911 24514 ft 385 kts 315°
2026-05-05 12:09 25.53203 109.86868 24510 ft 385 kts 315°
2026-05-05 12:10 25.55142 109.84823 24512 ft 385 kts 315°
2026-05-05 12:10 25.57059 109.82801 24507 ft 385 kts 315°
2026-05-05 12:10 25.58999 109.80755 24502 ft 385 kts 315°
2026-05-05 12:10 25.60963 109.78681 24507 ft 385 kts 315°
2026-05-05 12:11 25.62897 109.76638 24509 ft 384 kts 315°
2026-05-05 12:11 25.64802 109.74624 24514 ft 384 kts 315°
2026-05-05 12:11 25.66736 109.72579 24512 ft 384 kts 315°
2026-05-05 12:11 25.68664 109.70539 24509 ft 384 kts 315°
2026-05-05 12:12 25.70597 109.68493 24507 ft 384 kts 315°
2026-05-05 12:12 25.72529 109.66447 24504 ft 384 kts 315°
2026-05-05 12:12 25.74463 109.64399 24507 ft 385 kts 315°
2026-05-05 12:12 25.76401 109.62345 24508 ft 385 kts 315°
2026-05-05 12:13 25.78363 109.60324 24499 ft 386 kts 317°
2026-05-05 12:13 25.80419 109.58404 24506 ft 386 kts 319°
2026-05-05 12:13 25.82507 109.56521 24503 ft 386 kts 320°
2026-05-05 12:13 25.84596 109.54652 24499 ft 386 kts 320°
2026-05-05 12:14 25.86691 109.52775 24504 ft 387 kts 320°
2026-05-05 12:14 25.88777 109.50894 24503 ft 387 kts 319°
2026-05-05 12:14 25.90862 109.49007 24511 ft 387 kts 319°
2026-05-05 12:14 25.92950 109.47109 24499 ft 387 kts 319°
2026-05-05 12:15 25.95031 109.45215 24496 ft 387 kts 319°
2026-05-05 12:15 25.97091 109.43338 24483 ft 376 kts 319°
2026-05-05 12:15 25.99082 109.41524 24490 ft 366 kts 319°
2026-05-05 12:15 26.00383 109.40337 24492 ft 365 kts 319°
2026-05-05 12:16 26.00850 109.39911 24492 ft 365 kts 319°
2026-05-05 12:16 26.02813 109.38118 24498 ft 365 kts 319°
2026-05-05 12:16 26.04785 109.36316 24257 ft 368 kts 319°
2026-05-05 12:16 26.06748 109.34522 23964 ft 364 kts 319°
2026-05-05 12:17 26.08704 109.32735 23602 ft 363 kts 319°
2026-05-05 12:17 26.10652 109.30954 23148 ft 362 kts 319°
2026-05-05 12:17 26.12590 109.29182 22725 ft 360 kts 319°
2026-05-05 12:17 26.14631 109.27591 22298 ft 360 kts 334°
2026-05-05 12:18 26.16997 109.26824 21924 ft 360 kts 351°
2026-05-05 12:18 26.19506 109.26868 21487 ft 364 kts
2026-05-05 12:18 26.21951 109.27589 21122 ft 363 kts 14°
2026-05-05 12:18 26.24358 109.28437 20724 ft 362 kts 15°
2026-05-05 12:19 26.26746 109.29310 20330 ft 361 kts 15°
2026-05-05 12:19 26.29130 109.30179 19949 ft 359 kts 15°
2026-05-05 12:19 26.31498 109.31030 19574 ft 357 kts 15°
2026-05-05 12:19 26.33860 109.31867 19182 ft 356 kts 15°
2026-05-05 12:20 26.36224 109.32696 18807 ft 355 kts 15°
2026-05-05 12:20 26.38577 109.33519 18420 ft 354 kts 15°
2026-05-05 12:20 26.40922 109.34337 18007 ft 353 kts 15°
2026-05-05 12:20 26.43266 109.35155 17593 ft 351 kts 15°
2026-05-05 12:21 26.45585 109.35964 17209 ft 349 kts 15°
2026-05-05 12:21 26.47893 109.36769 16822 ft 346 kts 15°
2026-05-05 12:21 26.50189 109.37570 16454 ft 344 kts 15°
2026-05-05 12:21 26.52467 109.38366 16081 ft 343 kts 15°
2026-05-05 12:22 26.54711 109.39149 15714 ft 341 kts 15°
2026-05-05 12:22 26.56971 109.39933 15348 ft 340 kts 14°
2026-05-05 12:22 26.59225 109.40714 14981 ft 339 kts 14°
2026-05-05 12:22 26.61475 109.41493 14605 ft 338 kts 15°
2026-05-05 12:23 26.63715 109.42269 14236 ft 336 kts 15°
2026-05-05 12:23 26.65934 109.43040 13863 ft 334 kts 15°
2026-05-05 12:23 26.68155 109.43812 13479 ft 333 kts 15°
2026-05-05 12:23 26.70368 109.44579 13077 ft 332 kts 15°
2026-05-05 12:24 26.72567 109.45343 12708 ft 330 kts 15°
2026-05-05 12:24 26.74758 109.46105 12345 ft 329 kts 15°
2026-05-05 12:24 26.76938 109.46863 11990 ft 327 kts 15°
2026-05-05 12:24 26.79107 109.47618 11618 ft 326 kts 15°
2026-05-05 12:25 26.81265 109.48369 11280 ft 324 kts 15°
2026-05-05 12:25 26.83416 109.49118 10986 ft 321 kts 15°
2026-05-05 12:25 26.85538 109.49858 10661 ft 319 kts 15°
2026-05-05 12:25 26.87650 109.50594 10381 ft 316 kts 16°
2026-05-05 12:26 26.89722 109.51317 10247 ft 307 kts 16°
2026-05-05 12:26 26.91737 109.52020 10108 ft 300 kts 16°
2026-05-05 12:26 26.93704 109.52707 9931 ft 294 kts 16°
2026-05-05 12:26 26.95652 109.53386 9624 ft 293 kts 16°
2026-05-05 12:27 26.97596 109.54064 9320 ft 292 kts 16°
2026-05-05 12:27 26.99531 109.54740 9020 ft 290 kts 16°
2026-05-05 12:27 27.01461 109.55414 8667 ft 291 kts 17°
2026-05-05 12:27 27.03405 109.56093 8283 ft 293 kts 17°
2026-05-05 12:28 27.05357 109.56776 7897 ft 295 kts 17°
2026-05-05 12:28 27.07324 109.57464 7512 ft 296 kts 17°
2026-05-05 12:28 27.09293 109.58152 7128 ft 298 kts 17°
2026-05-05 12:28 27.11280 109.58848 6734 ft 300 kts 17°
2026-05-05 12:29 27.13276 109.59547 6338 ft 302 kts 17°
2026-05-05 12:29 27.15258 109.60252 5921 ft 300 kts 20°
2026-05-05 12:29 27.17094 109.61257 5660 ft 288 kts 31°
2026-05-05 12:29 27.18778 109.62400 5427 ft 277 kts 33°
2026-05-05 12:30 27.20393 109.63509 5203 ft 267 kts 33°
2026-05-05 12:30 27.22066 109.64285 4978 ft 259 kts
2026-05-05 12:30 27.23799 109.64035 4714 ft 251 kts 335°
2026-05-05 12:30 27.25231 109.62982 4391 ft 243 kts 312°
2026-05-05 12:31 27.26301 109.61565 4077 ft 234 kts 304°
2026-05-05 12:31 27.27251 109.60122 3753 ft 225 kts 302°
2026-05-05 12:31 27.28396 109.58953 3400 ft 227 kts 336°
2026-05-05 12:31 27.29915 109.58793 3301 ft 219 kts 14°
2026-05-05 12:32 27.31268 109.59478 3212 ft 210 kts 37°
2026-05-05 12:32 27.32382 109.60459 3126 ft 198 kts 53°
2026-05-05 12:32 27.33497 109.61333 3056 ft 196 kts 29°
2026-05-05 12:32 27.34602 109.62184 3031 ft 192 kts 40°
2026-05-05 12:33 27.35679 109.63123 2796 ft 199 kts 43°
2026-05-05 12:33 27.36781 109.64045 2567 ft 194 kts 39°
2026-05-05 12:33 27.37818 109.64942 2309 ft 183 kts 40°
2026-05-05 12:33 27.38789 109.65777 2114 ft 171 kts 39°
2026-05-05 12:34 27.39719 109.66570 1943 ft 163 kts 43°
2026-05-05 12:34 27.40608 109.67328 1686 ft 159 kts 37°
2026-05-05 12:34 27.41472 109.68081 1408 ft 158 kts 37°
2026-05-05 12:34 27.42339 109.68830 1222 ft 156 kts 37°
2026-05-05 12:35 27.43205 109.69551 997 ft 157 kts 37°
2026-05-05 12:35 27.44083 109.70271 846 ft 151 kts 40°
2026-05-05 12:35 27.44846 109.70906 833 ft 117 kts 36°
2026-05-05 12:35 27.45379 109.71347 842 ft 63 kts 36°
2026-05-05 12:36 27.45461 109.71411 841 ft 3 kts 17°
2026-05-05 12:36 27.45481 109.71414 833 ft 3 kts
2026-05-05 12:36 27.45500 109.71416 835 ft 3 kts
2026-05-05 12:36 27.45519 109.71421 835 ft 3 kts 20°
2026-05-05 12:37 27.45539 109.71443 837 ft 6 kts 65°
2026-05-05 12:37 27.45511 109.71465 835 ft 8 kts 211°
2026-05-05 12:37 27.45454 109.71418 835 ft 12 kts 221°
2026-05-05 12:37 27.45385 109.71351 841 ft 14 kts 221°
2026-05-05 12:38 27.45308 109.71285 838 ft 13 kts 214°
2026-05-05 12:38 27.45230 109.71223 843 ft 15 kts 217°
2026-05-05 12:38 27.45138 109.71147 842 ft 18 kts 216°
2026-05-05 12:38 27.45034 109.71062 834 ft 19 kts 216°
2026-05-05 12:39 27.44923 109.70973 842 ft 20 kts 218°
2026-05-05 12:39 27.44816 109.70881 837 ft 19 kts 217°
2026-05-05 12:39 27.44713 109.70792 831 ft 18 kts 217°
2026-05-05 12:39 27.44612 109.70707 832 ft 18 kts 216°
2026-05-05 12:40 27.44515 109.70627 834 ft 17 kts 216°
2026-05-05 12:40 27.44424 109.70547 845 ft 16 kts 219°
2026-05-05 12:40 27.44350 109.70483 846 ft 10 kts 218°
2026-05-05 12:40 27.44346 109.70419 839 ft 9 kts 309°
2026-05-05 12:41 27.44383 109.70363 836 ft 9 kts 307°
2026-05-05 12:41 27.44419 109.70309 837 ft 9 kts 301°
2026-05-05 12:41 27.44446 109.70251 847 ft 8 kts 307°
2026-05-05 12:41 27.44469 109.70217 847 ft 1 kts 308°
2026-05-05 12:42 27.44471 109.70214 839 ft 0 kts 308°
2026-05-05 12:43 27.44471 109.70213 839 ft 0 kts 307°
2026-05-05 12:43 27.44473 109.70211 843 ft 0 kts 307°